Flag for Netherlands

Past Weather in Apeldoorn, Netherlands — Yesterday and Last 2 Weeks

Now
95 °F

Overcast.


Feels Like: 92 °F
Forecast: 92 / 70 °F
Wind: 5 mph from North

Location: Deelen

Current Time: Aug 8, 2020 at 5:08:39 pm

Latest Report: Aug 8, 2020 at 4:25 pm


Visibility: N/A

Pressure: 30.07 "Hg

Humidity: 23%

Dew Point: 52 °F

Location of ApeldoornLocation

Past Weather in Apeldoorn — Graph

°F

Apeldoorn Temperature Yesterday

Maximum temperature yesterday: 93 °F (at 1:55 pm)
Minimum temperature yesterday: 63 °F (at 4:55 am)
Average temperature yesterday: 80 °F

High & Low Weather Summary for the Past Weeks

 TemperatureHumidityPressure
High95 °F (Aug 8, 2:25 pm)100% (Jul 25, 6:25 am)30.15 "Hg (Jul 25, 6:25 am)
Low45 °F (Aug 3, 5:25 am)19% (Aug 8, 2:55 pm)29.68 "Hg (Jul 26, 3:25 am)
Average67 °F67%29.98 "Hg
* Reported Jul 24 3:25 pm — Aug 8 3:25 pm, Apeldoorn. Weather by CustomWeather, © 2020

Note: Actual official high and low records may vary slightly from our data, if they occured in-between our weather recording intervals... More about our weather records

Apeldoorn Weather History for the Previous 24 Hours

Scroll right to see more
 ConditionsComfort  
Time TempWeatherWind HumidityBarometerVisibility
3:25 pm
Sat, Aug 8
95 °FPartly sunny.6 mph19%30.09 "HgN/A
2:55 pm95 °FExtremely hot.6 mph19%30.09 "HgN/A
2:25 pm95 °FScattered clouds.6 mph20%30.09 "HgN/A
1:55 pm93 °FScattered clouds.6 mph21%30.09 "HgN/A
1:25 pm93 °FExtremely hot.6 mph23%30.09 "HgN/A
12:55 pm93 °FExtremely hot.5 mph23%30.09 "HgN/A
12:25 pm93 °FScattered clouds.6 mph23%30.09 "HgN/A
11:55 am91 °FHot.6 mph23%30.09 "HgN/A
11:25 am91 °FHot.5 mph24%30.12 "HgN/A
10:55 am91 °FHot.5 mph26%30.12 "HgN/A
10:25 am90 °FHot.5 mph27%30.12 "HgN/A
9:55 am88 °FPleasantly warm.2 mph38%30.12 "HgN/A
9:25 am84 °FPleasantly warm.2 mph40%30.12 "HgN/A
8:55 am81 °FWarm.2 mph51%30.12 "HgN/A
8:25 am75 °FMild.No wind69%30.09 "HgN/A
7:55 am70 °FMild.No wind73%30.09 "HgN/A
7:25 am64 °FMild.No wind83%30.09 "HgN/A
6:55 am63 °FMild.1 mph77%30.09 "HgN/A
6:25 am63 °FMild.1 mph77%30.09 "HgN/A
5:55 am63 °FMild.3 mph77%30.09 "HgN/A
5:25 am63 °FMild.3 mph77%30.09 "HgN/A
4:55 am63 °FMild.2 mph77%30.09 "HgN/A
4:25 am64 °FMild.2 mph73%30.09 "HgN/A
3:55 am64 °FMild.2 mph73%30.09 "HgN/A
2:55 am64 °FMild.No wind73%30.09 "HgN/A
2:25 am66 °FMild.1 mph68%30.09 "HgN/A
1:55 am66 °FMild.3 mph68%30.09 "HgN/A
1:25 am66 °FMild.3 mph68%30.09 "HgN/A
12:55 am66 °FMild.1 mph73%30.09 "HgN/A
12:25 am66 °FMild.No wind73%30.09 "HgN/A
11:55 pm
Fri, Aug 7
68 °FMild.No wind69%30.09 "HgN/A
11:25 pm70 °FMild.1 mph64%30.09 "HgN/A
10:55 pm72 °FMild.No wind61%30.09 "HgN/A
10:25 pm73 °FMild.3 mph57%30.09 "HgN/A
9:25 pm77 °FWarm.1 mph51%30.07 "HgN/A
8:55 pm82 °FWarm.3 mph42%30.07 "HgN/A
8:25 pm88 °FPleasantly warm.6 mph31%30.07 "HgN/A
7:55 pm91 °FHot.7 mph24%30.07 "HgN/A
7:25 pm91 °FHot.6 mph24%30.07 "HgN/A
6:55 pm93 °FExtremely hot.6 mph21%30.07 "HgN/A
6:25 pm93 °FExtremely hot.6 mph21%30.07 "HgN/A
5:55 pm93 °FExtremely hot.7 mph21%30.07 "HgN/A
5:25 pm93 °FExtremely hot.6 mph21%30.07 "HgN/A
Weather by CustomWeather, © 2020

See weather overview